Regional Weather Roundup
Issued by NWS

Home | Current Version | Previous Version | Graphics & Text | Print | Product List | Glossary On
Versions: 1 2 3 4 5 6 7 8 9 10 11 12 13 14 15 16 17 18 19 20 21 22 23 24 25 26 27
000
ASUS45 KCYS 090710
RWRWY

WYOMING REGIONAL WEATHER ROUNDUP
NATIONAL WEATHER SERVICE CHEYENNE WY
1200 AM MST FRI DEC 09 2016

NOTE:  "FAIR" INDICATES FEW OR NO CLOUDS BELOW 12,000 FEET
WITH NO SIGNIFICANT WEATHER AND/OR OBSTRUCTIONS TO VISIBILITY.

WYZ001-090800-
YELLOWSTONE NATIONAL PARK

CITY           SKY/WX    TMP DP  RH WIND       PRES   REMARKS
LK YELLOWSTONE   N/A      7   5  91 W3        29.96S
W YELLOWSTONE  NOT AVBL

$$
WYZ002>013-054>058-071-098>099-090800-
NORTHERN WYOMING

CITY           SKY/WX    TMP DP  RH WIND       PRES   REMARKS
JACKSON        CLOUDY    12  12 100 SW10      30.04S WCI  -1
CODY           FAIR       0  -5  79 S5        30.10F WCI -10
GREYBULL       CLOUDY     8  -1  66 CALM      30.16F
WORLAND        CLOUDY     6   1  80 NW5       30.15R WCI  -3
SHERIDAN       FAIR       1  -5  75 NW5       30.21R WCI  -9
BUFFALO        FAIR      -1  -7  75 N7        30.10F WCI -14
GILLETTE       FAIR      -1  -7  75 NE6       30.16F WCI -13
HULETT         FAIR      -2  -6  84 CALM      30.22F
NEWCASTLE      FAIR      10   0  61 SE10      30.20F WCI  -3

$$
WYZ014>020-022>026-101>103-090800-
CENTRAL WYOMING

CITY           SKY/WX    TMP DP  RH WIND       PRES   REMARKS
BIG PINEY      LGT SNOW   9   6  88 CALM      30.08F VSB 1
PINEDALE       FLURRIES  10   7  85 NW8       30.09S WCI  -1
DUBOIS         PTSUNNY   18   9  68 N18G29    29.88F WCI   2
LANDER         FAIR       3  -2  79 W3        30.02F
RIVERTON       FAIR       3  -4  72 CALM      30.04F
CASPER         FAIR      -5  -9  83 CALM      30.04F
DOUGLAS        FAIR       7   1  76 SE9       30.09F WCI  -7

$$
WYZ021-027>030-104>119-090800-
SOUTHERN WYOMING

CITY           SKY/WX    TMP DP  RH WIND       PRES   REMARKS
EVANSTON       LGT SNOW  26  23  88 SW18      30.08R FOG     WCI  13
FORT BRIDGER   CLOUDY    10   7  88 SW3       30.11F
ROCK SPRINGS   CLOUDY    10   7  87 SW3       30.09F
DIXON          FLURRIES  27  17  64 SW13G21   30.16S WCI  17
RAWLINS        CLOUDY    25  15  66 W20G32    30.02F WCI  11
SARATOGA       CLOUDY    27  18  69 CALM      30.08S
LARAMIE        CLOUDY    24  16  71 SW12G22   30.02S WCI  13
CHEYENNE       CLOUDY    11   4  73 VRB7      30.08F WCI   0
TORRINGTON     CLOUDY     7   0  73 E9        30.19F WCI  -7
PINE BLUFFS    CLOUDY    12   9  85 S8        30.16F WCI   1

$$




USA.gov is the U.S. government's official web portal to all federal, state and local government web resources and services.